Regional Weather Roundup
Issued by NWS

Home | Current Version | Previous Version | Text Only | Print | Product List | Glossary Off
Versions: 1 2 3 4 5 6 7 8 9 10 11 12 13 14 15 16 17 18 19 20 21 22 23 24 25 26 27 28 29 30 31 32 33 34 35 36 37 38 39 40 41 42 43 44 45 46 47 48 49 50

591
ASUS43 KIND 261009
RWRIN

WEATHER ROUNDUP FOR INDIANA
NATIONAL WEATHER SERVICE INDIANAPOLIS IN
500 AM EST SUN FEB 26 2017

NOTE: "FAIR" INDICATES FEW OR NO CLOUDS BELOW 12,000 FEET WITH NO
SIGNIFICANT WEATHER AND/OR OBSTRUCTIONS TO VISIBILITY.

* - STATION DOES NOT REPORT WEATHER SUCH AS PRECIPITATION OR FOG.

+ - STATION NOT QUALITY CONTROLLED BY THE NATIONAL WEATHER SERVICE.
    USE DATA WITH CAUTION...ESPECIALLY DEWPOINT AND RELATIVE
    HUMIDITY OBSERVATIONS.

INZ001>003-010>013-019-020-261100-
NORTHWEST INDIANA

CITY           SKY/WX    TMP DP  RH WIND       PRES   REMARKS
KNOX *+        CLEAR     19   1  45 SW5       30.09R WCI  13
LA PORTE +     PTCLDY    20  15  82 SW6       30.08R WCI  12
MICHIGAN CITY+ CLEAR     21  16  79 S5        30.08R WCI  15
MONTICELLO +   CLEAR     21  17  85 S5        30.10S WCI  15
RENSSELAER +     N/A     21  19  93 S3        30.09S
VALPARAISO     MOCLDY    20  16  84 S5        30.07S WCI  13

$$

LMZ046-743>745-261100-
SOUTHERN LAKE MICHIGAN

STATION/POSITION TIME  TEMP    WIND        PRES    WAVE
                       AIR SEA DIR/SP/G            HT
                 (UTC) (F)     (DEG/KT/KT) (MB)    (FT)
BURNS HARBOR     0940   23     180/  8/ 11 1018.6S
MICHIGAN CITY    0940   24     170/  9/ 11   N/A

$$

INZ004-005-014>016-021>024-261100-
NORTH CENTRAL INDIANA

CITY           SKY/WX    TMP DP  RH WIND       PRES   REMARKS
GOSHEN         CLEAR     22  15  75 SW7       30.06S WCI  13
LOGANSPORT +   CLEAR     21  18  86 SW5       30.11R WCI  15
PERU/GRISSOM   CLEAR     19  16  86 W5        30.09R WCI  12
ROCHESTER +    CLEAR     25  19  80 SW3       30.10R
SOUTH BEND     CLEAR     21  15  78 SW7       30.07R WCI  12
WARSAW +       CLEAR     21  14  73 SW5       30.07R WCI  15

$$

INZ006>009-017-018-025>027-261100-
NORTHEAST INDIANA

CITY           SKY/WX    TMP DP  RH WIND       PRES   REMARKS
ANGOLA *+      CLEAR     25  19  80 W3        30.04S
AUBURN +       PTCLDY    27  18  69 SW3       30.07S
FORT WAYNE     PTCLDY    23  17  78 W6        30.08R WCI  16
HUNTINGTON +   CLEAR     21  15  76 SW3       30.09R
KENDALLVILLE + PTCLDY    23  18  78 SW5       30.05S WCI  17

$$

INZ028-029-035-036-043>045-051>053-261100-
WEST CENTRAL INDIANA

CITY           SKY/WX    TMP DP  RH WIND       PRES   REMARKS
LAFAYETTE      CLEAR     18  17  96 CALM      30.11S
TERRE HAUTE    CLEAR     21  16  81 CALM      30.14R

$$

INZ030>032-037>040-046>048-054>057-064-065-261100-
CENTRAL INDIANA

CITY           SKY/WX    TMP DP  RH WIND       PRES   REMARKS
CP ATTERBURY + CLEAR     21  18  86 CALM      30.14S
FISHERS *+     CLEAR     19  19 100 CALM      30.12R
FRANKFORT +    CLEAR     21  18  89 W3        30.11S
GREENWOOD *+   CLEAR     22  17  78 CALM      30.12S
INDIANAPOLIS   CLEAR     21  15  78 SW6       30.11S WCI  13
-EAGLE CREEK   CLEAR     23  16  74 CALM      30.11R
KOKOMO +       CLEAR     17  14  88 SW5       30.11R WCI  10
MARION +       CLEAR     20  17  86 W6        30.11R WCI  12
MT COMFORT *+  CLEAR     21  16  79 CALM      30.11S
SHELBYVILLE    CLEAR     23  15  71 SW5       30.12R WCI  17
ZIONSVILLE +   CLEAR     20  17  88 SW3       30.11S

$$

INZ033-034-041-042-049-050-058-059-261100-
EAST CENTRAL INDIANA

CITY           SKY/WX    TMP DP  RH WIND       PRES   REMARKS
MUNCIE         CLEAR     22  16  78 SW3       30.10R

$$

INZ060-061-067>069-081>083-085>088-261100-
SOUTHWEST INDIANA

CITY           SKY/WX    TMP DP  RH WIND       PRES   REMARKS
EVANSVILLE     CLEAR     27  16  63 CALM      30.19R
HUNTINGBURG *+ CLEAR     21  17  84 S5        30.18R WCI  15
WASHINGTON +   PTCLDY    23  18  80 S3        30.16R

$$

INZ062-063-066-070>080-084-089>092-261100-
SOUTH CENTRAL AND SOUTHEAST INDIANA

CITY           SKY/WX    TMP DP  RH WIND       PRES   REMARKS
BEDFORD +      CLEAR     23  16  74 CALM      30.13
BLOOMINGTON    CLEAR     20  13  74 CALM      30.13R
MADISON *+     CLEAR     27  18  69 CALM      30.16R
NORTH VERNON + CLEAR     27  16  63 CALM      30.14R
SEYMOUR +      CLEAR     25  16  68 CALM      30.15

$$





USA.gov is the U.S. government's official web portal to all federal, state and local government web resources and services.